Temperature
20 20 20 19 19 19 19 19 18 18 18 18 18 18 18 18 18 18 18 17 17 17 17 17 17 17 17 17 17 17 17 17 17 16 16 16 16 16 16 15 15 15 15
20 20 20 19 19 19 19 19 18 18 18 18 18 18 18 18 18 18 17 17 17 17 17 17 17 17 17 17 17 17 17 17 17 16 16 16 16 16 15 15 15 15 15
20 20 20 19 19 19 19 18 18 18 18 18 18 18 18 18 17 17 17 17 17 17 17 17 17 17 17 17 17 17 17 16 16 16 16 16 16 15 15 15 15 15 14
20 20 20 19 19 19 19 18 18 18 18 18 18 18 17 17 17 17 17 17 17 17 17 17 17 17 17 17 17 17 16 16 16 16 16 16 15 15 15 15 15 15 14
20 20 20 19 19 19 18 18 18 18 18 18 18 18 17 17 17 17 17 17 17 17 17 17 17 16 16 16 16 16 16 16 16 16 16 15 15 15 15 15 14 14 14
20 20 20 19 19 19 18 18 18 18 18 18 18 17 17 17 17 17 17 17 17 17 17 17 16 16 16 16 16 16 16 16 16 16 15 15 15 15 15 14 14 14 14
20 20 19 19 19 19 18 18 18 18 18 18 18 17 17 17 17 17 17 17 17 17 16 16 16 16 16 16 16 16 16 15 15 15 15 15 15 15 14 14 14 14 14
20 19 19 19 19 19 18 18 18 18 18 18 17 17 17 17 17 17 17 16 16 16 16 16 16 16 16 16 16 16 16 15 15 15 15 15 15 14 14 14 14 14 14
20 19 19 19 19 18 18 18 18 18 18 17 17 17 17 17 17 17 16 16 16 16 16 16 16 16 16 16 16 16 15 15 15 15 15 15 14 14 14 14 14 14 13
20 19 19 19 18 18 18 18 18 18 18 17 17 17 17 17 17 17 16 16 16 16 16 15 15 15 15 15 15 15 15 15 15 15 15 15 14 14 14 14 14 13 13
19 19 19 19 18 18 18 18 18 17 17 17 17 17 17 17 17 16 16 16 16 16 15 15 15 15 15 15 15 15 15 15 14 14 14 14 14 14 14 13 13 13 13
19 18 18 18 18 18 18 18 17 17 17 17 17 17 16 16 16 16 16 16 16 16 15 15 15 15 15 15 15 14 14 14 14 14 14 14 14 14 14 13 13 13 12
18 18 18 18 18 17 18 17 17 17 17 17 16 16 16 16 16 16 16 16 16 15 15 15 15 15 14 14 14 14 14 14 14 14 14 13 13 13 13 13 13 13 12
18 18 18 17 17 17 17 17 17 17 17 16 16 16 16 16 16 16 16 16 15 15 15 15 15 14 14 14 14 14 14 14 14 13 13 13 13 13 13 13 12 12 12
18 17 17 17 17 17 16 16 16 16 17 17 16 16 16 16 16 16 16 15 15 15 15 14 14 14 14 14 14 14 14 14 13 13 13 13 13 13 13 12 12 12 12
17 17 17 16 16 16 16 16 16 16 16 16 16 16 16 16 15 15 15 15 15 14 14 14 14 14 14 14 14 14 13 13 13 13 13 13 13 12 12 12 12 12 11
17 17 16 16 16 16 16 16 16 16 16 15 16 16 15 15 15 15 15 15 14 14 14 14 14 14 14 13 13 13 13 13 13 13 13 12 12 12 12 12 12 11 11
17 16 16 16 16 16 16 16 15 15 15 15 15 15 15 15 15 15 14 14 14 14 14 14 14 14 13 13 13 13 13 13 12 12 12 12 12 12 12 11 11 11 11
16 16 16 16 15 15 15 15 15 15 15 15 15 15 15 15 14 14 14 14 14 14 14 14 13 13 13 13 13 13 13 12 12 12 12 12 12 12 11 11 11 11 11
16 15 15 15 15 15 15 15 15 15 15 15 15 15 15 15 14 14 14 14 14 14 14 14 13 13 13 13 13 12 12 12 12 12 12 12 11 11 11 11 11 10 10
15 15 15 15 15 15 15 14 14 14 15 15 15 15 15 15 15 15 14 14 14 14 14 14 13 13 13 13 12 12 12 12 12 12 12 11 11 11 11 11 10 10 10
15 15 14 15 15 15 14 14 14 14 14 14 14 14 14 14 14 14 14 14 14 13 13 13 13 13 12 12 12 12 12 12 11 11 11 11 11 11 10 10 10 10 9
14 14 14 14 14 14 14 14 14 14 14 14 14 14 14 14 14 14 14 14 13 13 13 13 12 12 12 12 12 12 12 11 11 11 11 11 10 10 10 10 9 9 9
14 14 14 14 14 14 14 14 14 14 14 14 14 14 14 14 14 14 13 13 13 13 13 12 12 12 12 12 12 11 11 11 11 11 10 10 10 10 10 9 9 9 9
14 13 14 13 13 14 13 13 13 13 13 13 13 13 13 13 13 13 13 13 13 13 12 12 12 12 11 11 11 11 11 11 10 10 10 10 10 10 9 9 9 9 9
13 13 13 13 13 13 13 13 13 13 13 13 13 13 13 13 13 13 13 13 12 12 12 12 11 11 11 11 11 11 11 10 10 10 10 10 9 9 9 9 9 8 8
Wind_Speed
8 6 6 5 4 4 3 3 3 3 3 3 3 3 2 2 2 2 2 2 2 2 2 2 1 1 1 1 1 1 2 3 3 1 1 1 1 1 2 3 4 4 5
8 7 6 5 5 4 3 3 3 3 3 3 3 3 2 2 2 3 3 2 2 2 1 2 1 1 1 1 1 1 2 3 4 2 1 0 1 2 2 2 2 3 4
9 8 6 5 5 5 4 4 3 3 3 3 3 3 2 2 2 2 3 2 2 2 2 2 2 2 1 1 1 1 1 2 2 3 1 0 0 0 0 1 1 1 3
10 9 8 7 6 5 5 5 4 4 4 4 3 3 2 2 2 2 3 2 2 2 2 2 2 2 3 2 2 2 2 2 2 2 1 0 0 1 1 1 1 1 2
10 10 9 8 7 6 5 5 5 5 5 4 4 2 2 3 2 3 2 2 2 1 1 1 1 2 2 3 2 3 3 2 2 2 1 1 0 0 1 1 1 2 2
10 10 8 8 7 7 6 5 5 5 4 4 4 3 2 2 3 4 4 3 2 2 1 0 0 1 1 2 3 4 4 4 3 3 2 2 3 3 2 2 1 0 2
9 9 8 9 8 7 8 6 5 5 4 4 4 3 3 2 3 4 5 4 3 2 2 1 0 0 0 0 1 1 1 3 5 5 4 4 4 4 3 2 2 2 3
8 8 8 8 8 8 7 7 6 5 5 4 4 4 3 3 4 4 5 3 2 2 2 2 2 1 1 1 1 1 1 1 3 3 4 5 5 5 5 4 4 2 2
7 7 8 8 8 8 8 7 6 5 5 4 4 5 4 4 5 5 4 2 1 2 2 2 2 2 2 3 2 1 1 3 3 3 5 5 5 5 5 2 1 1 2
7 7 7 7 8 9 8 7 6 5 5 5 5 5 5 4 5 5 5 3 2 2 2 2 3 3 3 4 3 2 2 4 2 2 2 2 2 3 4 5 4 3 2
6 6 6 7 7 8 7 6 6 6 5 5 5 4 4 5 5 5 6 4 4 3 3 3 3 3 3 4 4 4 6 4 2 1 1 2 2 2 2 3 4 4 4
5 5 6 6 6 6 6 5 5 6 6 5 4 4 3 4 5 5 7 7 6 4 4 4 3 4 4 3 3 3 4 2 1 0 1 2 2 3 3 3 4 5 6
5 5 5 6 5 5 6 6 5 5 6 6 5 5 4 3 4 7 7 7 7 4 4 4 3 3 3 2 3 3 1 1 1 1 2 3 3 3 3 2 2 3 4
6 6 5 5 5 5 5 5 6 6 6 5 6 5 4 3 4 3 4 4 4 3 3 2 2 2 2 2 2 1 2 2 2 3 3 3 2 2 2 2 2 2 2
5 4 4 4 5 5 4 4 5 6 7 7 6 6 6 5 6 8 6 4 4 4 2 1 0 0 1 1 1 2 2 1 2 3 2 2 2 2 3 2 1 1 1
5 4 4 3 4 4 4 2 2 4 5 7 8 7 6 7 7 8 8 8 7 6 4 2 2 3 3 3 3 3 3 3 4 3 3 3 3 3 3 2 1 2 2
6 6 5 4 4 4 5 5 3 2 2 5 7 8 8 8 9 8 8 6 5 7 4 4 4 4 4 4 4 4 4 4 3 3 3 3 3 2 2 3 2 2 2
5 6 5 5 5 5 5 5 5 5 4 3 4 7 8 9 9 8 6 5 2 4 4 5 5 5 5 5 5 4 4 3 2 3 3 3 3 2 2 3 3 3 3
5 4 4 4 4 4 4 4 4 5 5 4 2 3 6 6 5 5 7 5 6 6 6 5 5 5 5 5 5 4 4 3 3 3 3 3 3 3 2 2 3 4 3
4 6 5 4 4 4 4 4 4 4 4 5 5 5 4 4 3 4 6 6 6 6 6 6 5 5 5 4 4 4 3 3 3 3 3 3 3 3 3 3 3 3 3
4 5 6 4 4 4 4 4 5 5 5 5 6 6 8 7 7 7 7 7 7 7 6 6 5 4 4 4 4 4 4 3 3 3 3 3 3 3 3 3 3 4 3
4 4 4 4 4 3 3 4 4 4 5 5 4 4 8 6 6 6 7 7 6 5 5 5 4 4 4 4 4 4 4 4 4 3 3 3 3 3 3 3 3 3 3
4 4 4 3 3 3 3 3 3 3 3 4 4 4 5 5 6 6 6 6 5 4 4 4 4 4 3 4 4 4 5 5 5 4 4 3 3 3 3 3 3 3 3
4 4 4 4 3 3 3 3 3 3 3 4 4 4 4 5 5 5 5 4 4 4 4 4 5 5 5 4 4 5 5 6 6 5 5 4 4 3 3 3 3 4 4
3 4 4 4 3 3 3 3 3 3 3 4 4 4 4 4 4 3 3 3 3 4 5 5 4 5 5 5 5 4 5 5 5 4 4 3 4 3 3 3 3 3 3
3 3 3 3 3 3 3 3 2 3 3 4 4 4 4 4 4 4 3 3 3 3 3 3 4 5 5 5 6 5 5 4 4 3 4 3 3 3 3 3 3 3 3
Wind_Direction
175 173 168 166 161 153 147 160 158 151 143 142 148 145 135 126 118 118 130 126 116 104 100 112 124 147 120 137 149 150 146 139 157 245 253 261 166 196 176 197 206 207 214
177 172 170 167 162 164 168 168 159 154 148 144 141 140 143 137 132 132 141 130 127 124 132 122 117 110 96 122 129 135 147 150 151 174 234 296 205 206 195 201 212 216 216
172 169 170 171 171 176 179 176 165 155 149 142 136 138 146 142 134 139 138 135 134 141 144 138 147 125 116 123 126 125 143 132 132 147 180 221 278 239 96 271 239 250 232
172 171 175 180 179 179 176 171 169 162 153 150 148 151 154 146 137 140 132 124 122 122 126 133 138 148 163 163 146 148 137 120 120 126 137 191 268 300 103 254 298 289 268
172 176 184 184 178 174 172 173 172 171 171 165 156 154 146 147 157 151 150 139 135 127 109 132 141 145 172 174 164 166 148 145 140 142 155 120 221 185 236 233 250 278 286
178 185 184 179 175 175 176 173 171 174 171 162 168 166 159 172 164 160 153 149 146 149 168 202 137 63 162 185 182 177 168 169 181 177 185 196 224 223 225 210 207 233 290
177 182 181 180 179 180 179 174 178 184 177 167 171 164 172 192 174 163 163 164 165 180 189 197 249 5 41 180 182 150 184 200 188 179 192 215 213 215 196 203 208 209 231
174 181 182 180 183 182 180 184 187 181 174 176 178 177 177 202 190 182 173 165 160 185 186 186 194 256 283 175 144 90 329 281 219 200 207 221 219 211 198 200 209 225 271
174 178 181 179 181 182 186 192 192 182 184 185 181 179 181 207 192 183 170 161 182 232 232 215 199 215 238 171 131 138 297 299 275 237 227 227 229 220 196 164 161 135 287
187 187 182 179 181 187 192 195 193 186 193 188 190 191 193 203 199 186 171 171 191 246 264 256 232 225 227 192 176 189 245 271 289 317 304 295 273 254 214 192 192 198 225
187 183 180 181 186 190 191 192 186 186 187 190 195 203 203 202 203 192 179 181 194 210 234 248 253 238 229 215 201 209 234 244 249 256 284 307 312 298 266 228 206 197 208
167 174 182 184 190 190 183 189 186 184 187 193 192 202 211 208 206 204 195 195 193 193 217 234 239 229 226 226 222 239 244 237 232 264 290 285 281 276 272 259 239 225 223
162 174 183 184 189 186 180 183 184 185 190 197 195 206 217 215 215 208 202 198 196 205 225 223 227 229 227 237 245 245 228 187 189 241 257 265 263 263 273 281 289 267 265
172 178 179 180 187 190 188 187 187 190 194 198 200 206 210 211 210 206 201 203 203 212 237 244 244 246 226 235 256 251 220 204 204 232 254 267 282 295 292 281 275 282 291
168 173 176 184 189 189 191 199 200 204 203 199 206 199 195 213 223 202 190 197 197 197 171 126 79 245 250 265 262 252 241 225 231 243 245 269 285 291 290 288 263 247 253
169 181 182 188 190 186 185 204 240 212 210 207 205 199 210 211 204 205 205 204 195 170 149 187 216 221 223 231 237 248 242 235 235 232 238 250 258 265 280 287 267 239 250
182 187 185 188 193 195 194 193 209 269 236 215 215 209 205 202 203 207 206 199 181 159 172 210 219 223 228 230 229 231 237 238 227 225 234 243 245 252 263 271 269 263 258
187 189 186 190 197 202 204 201 197 200 214 245 240 224 214 212 209 207 191 150 166 189 209 215 220 222 223 226 228 228 234 237 225 231 240 245 241 235 251 267 269 261 257
190 191 193 194 195 203 206 205 205 204 205 213 215 233 219 208 208 208 179 190 202 212 218 222 223 221 223 223 223 219 214 211 216 221 230 237 236 226 238 252 260 269 262
204 202 197 194 198 206 208 207 211 213 212 214 214 212 189 171 201 208 205 214 214 218 217 219 223 221 217 213 209 206 209 209 206 219 230 233 233 226 232 243 250 256 256
207 209 203 199 204 209 213 215 212 210 213 219 222 213 188 196 211 213 213 216 218 218 217 215 215 214 211 204 202 201 201 213 214 219 224 231 231 236 239 234 241 252 259
206 205 205 209 208 204 215 218 216 216 218 220 228 221 202 207 214 217 218 221 220 215 205 199 205 208 204 200 198 196 196 211 224 226 229 234 236 237 241 239 244 254 260
206 202 203 209 205 197 202 211 212 217 220 222 217 212 209 217 218 218 218 215 209 208 199 190 196 201 200 201 203 202 204 214 216 210 211 223 233 238 236 237 241 251 254
213 208 204 200 194 188 190 203 219 223 220 216 218 218 211 213 216 218 216 210 204 202 198 191 192 198 197 200 207 209 211 211 207 206 201 212 225 233 231 237 243 245 251
210 208 201 194 191 190 191 199 217 227 225 218 218 215 209 205 205 208 200 193 188 193 197 193 190 193 195 194 195 202 203 202 205 207 208 203 213 226 232 239 244 250 247
206 206 201 194 192 190 185 193 213 226 227 226 220 212 204 200 202 205 201 192 193 195 195 191 186 191 195 202 204 198 198 200 206 218 214 198 207 225 227 232 241 244 245
Height
1525 1527 1528 1529 1530 1531 1531 1531 1532 1532 1533 1533 1533 1534 1534 1534 1535 1535 1535 1535 1535 1536 1536 1536 1535 1535 1535 1535 1535 1535 1536 1536 1535 1535 1536 1536 1535 1535 1535 1535 1535 1534 1534
1524 1525 1527 1528 1529 1530 1530 1531 1531 1532 1532 1532 1533 1533 1534 1534 1534 1534 1535 1535 1534 1534 1534 1534 1534 1534 1534 1535 1534 1534 1534 1534 1534 1534 1534 1534 1534 1534 1533 1533 1533 1533 1532
1522 1524 1525 1526 1527 1528 1529 1530 1531 1531 1531 1532 1532 1533 1533 1533 1533 1534 1534 1534 1534 1534 1534 1533 1533 1533 1533 1533 1533 1533 1533 1533 1533 1532 1532 1533 1532 1532 1532 1531 1531 1530 1530
1520 1521 1523 1524 1525 1527 1528 1529 1530 1530 1531 1531 1531 1532 1532 1532 1532 1533 1533 1533 1533 1533 1533 1533 1533 1532 1532 1532 1532 1532 1532 1531 1531 1531 1531 1531 1531 1531 1530 1529 1529 1528 1528
1517 1519 1520 1522 1524 1525 1526 1527 1528 1529 1529 1530 1531 1531 1531 1531 1531 1532 1532 1532 1532 1532 1532 1532 1531 1531 1531 1531 1531 1531 1531 1530 1530 1530 1529 1529 1529 1529 1529 1528 1527 1526 1526
1514 1516 1518 1520 1521 1523 1524 1525 1526 1527 1528 1528 1529 1529 1529 1530 1530 1531 1531 1531 1531 1531 1531 1530 1530 1530 1530 1530 1530 1530 1530 1529 1529 1529 1528 1528 1527 1527 1527 1526 1525 1524 1523
1511 1513 1515 1517 1519 1520 1521 1523 1524 1525 1526 1526 1527 1528 1528 1529 1529 1529 1530 1530 1530 1530 1530 1529 1529 1529 1529 1529 1528 1528 1528 1528 1528 1528 1527 1526 1526 1525 1525 1524 1523 1522 1521
1508 1510 1512 1514 1516 1517 1519 1520 1521 1522 1523 1524 1525 1526 1526 1527 1528 1528 1528 1529 1528 1528 1528 1528 1528 1528 1528 1527 1527 1526 1526 1526 1526 1526 1525 1524 1524 1523 1523 1522 1521 1520 1519
1505 1507 1509 1511 1512 1514 1516 1517 1518 1520 1521 1522 1522 1523 1524 1525 1525 1526 1527 1527 1527 1527 1527 1527 1526 1526 1526 1526 1525 1524 1524 1524 1524 1523 1523 1522 1522 1521 1520 1519 1518 1517 1516
1503 1504 1506 1508 1509 1510 1512 1514 1515 1517 1518 1519 1520 1521 1522 1522 1523 1524 1524 1524 1524 1524 1525 1524 1524 1524 1524 1523 1523 1523 1522 1522 1522 1521 1520 1520 1519 1518 1517 1517 1516 1514 1513
1500 1502 1504 1505 1506 1508 1509 1511 1512 1513 1515 1516 1517 1518 1519 1520 1520 1521 1521 1521 1521 1521 1521 1521 1522 1522 1521 1521 1521 1520 1520 1520 1519 1518 1517 1517 1516 1515 1514 1513 1512 1512 1510
1498 1500 1501 1502 1503 1505 1506 1507 1509 1510 1511 1512 1513 1514 1515 1516 1517 1517 1518 1518 1518 1518 1518 1518 1518 1519 1519 1518 1518 1518 1517 1517 1516 1515 1514 1513 1512 1511 1511 1510 1509 1508 1507
1496 1497 1498 1499 1500 1502 1502 1503 1505 1506 1507 1508 1510 1510 1511 1512 1513 1514 1514 1515 1515 1515 1515 1515 1515 1516 1516 1516 1515 1515 1515 1514 1513 1512 1511 1510 1510 1509 1508 1507 1506 1505 1504
1492 1494 1495 1496 1497 1498 1500 1500 1501 1502 1503 1505 1506 1506 1507 1508 1509 1510 1510 1510 1511 1511 1511 1512 1512 1513 1513 1512 1512 1512 1511 1511 1510 1509 1508 1507 1506 1505 1504 1503 1502 1501 1500
1489 1490 1492 1493 1494 1495 1496 1497 1498 1499 1500 1501 1502 1503 1504 1505 1506 1507 1507 1507 1507 1507 1508 1508 1508 1509 1509 1508 1508 1508 1507 1507 1506 1505 1505 1504 1503 1502 1501 1500 1499 1497 1496
1485 1487 1488 1489 1490 1492 1492 1493 1494 1496 1497 1498 1499 1500 1501 1502 1503 1503 1504 1504 1504 1504 1504 1504 1504 1504 1504 1504 1504 1504 1503 1503 1502 1502 1501 1500 1499 1498 1497 1496 1495 1494 1493
1482 1484 1485 1486 1487 1488 1489 1490 1491 1492 1493 1495 1496 1497 1498 1498 1499 1500 1500 1500 1500 1500 1501 1500 1501 1501 1501 1501 1500 1500 1499 1499 1499 1498 1497 1496 1495 1494 1494 1493 1492 1491 1490
1480 1481 1482 1483 1483 1485 1486 1487 1488 1488 1489 1490 1492 1493 1494 1494 1495 1496 1496 1496 1496 1496 1496 1496 1497 1497 1497 1497 1496 1496 1495 1495 1494 1494 1493 1492 1492 1490 1489 1489 1488 1487 1486
1477 1478 1479 1479 1480 1481 1482 1483 1484 1485 1486 1486 1487 1489 1490 1490 1491 1492 1492 1492 1491 1491 1492 1492 1492 1493 1493 1493 1492 1492 1491 1490 1490 1490 1489 1488 1487 1487 1486 1485 1484 1484 1483
1474 1475 1475 1476 1477 1478 1479 1480 1481 1481 1482 1482 1483 1484 1485 1485 1485 1486 1487 1487 1487 1487 1487 1488 1488 1488 1488 1488 1488 1487 1487 1486 1485 1486 1485 1484 1483 1483 1482 1481 1480 1480 1479
1471 1471 1472 1473 1473 1474 1474 1475 1476 1477 1478 1479 1479 1480 1481 1481 1481 1481 1482 1482 1482 1483 1483 1484 1484 1484 1484 1483 1483 1482 1482 1482 1481 1481 1481 1480 1479 1479 1478 1477 1476 1476 1474
1467 1468 1468 1469 1469 1470 1471 1472 1472 1473 1474 1474 1475 1476 1476 1477 1477 1477 1477 1477 1478 1478 1479 1479 1479 1479 1479 1478 1478 1478 1477 1477 1477 1477 1477 1476 1476 1474 1474 1473 1472 1471 1470
1464 1464 1465 1465 1466 1466 1468 1468 1469 1469 1470 1470 1470 1471 1471 1472 1472 1473 1472 1473 1473 1473 1474 1474 1475 1474 1474 1474 1474 1474 1473 1473 1473 1473 1473 1472 1471 1470 1469 1468 1468 1467 1467
1460 1460 1461 1461 1462 1463 1463 1464 1465 1465 1466 1466 1466 1466 1467 1467 1468 1468 1468 1468 1468 1468 1469 1469 1469 1469 1470 1469 1469 1470 1469 1469 1469 1469 1468 1468 1467 1467 1466 1465 1464 1463 1463
1456 1456 1457 1458 1458 1459 1460 1460 1461 1461 1461 1462 1462 1462 1463 1463 1463 1463 1463 1463 1463 1464 1464 1464 1464 1465 1465 1465 1465 1465 1465 1465 1464 1464 1464 1464 1463 1463 1462 1461 1460 1459 1458
1452 1453 1453 1454 1455 1456 1456 1457 1458 1458 1458 1458 1458 1458 1459 1459 1459 1460 1459 1459 1459 1459 1459 1460 1460 1460 1461 1460 1460 1460 1460 1460 1460 1460 1460 1460 1459 1458 1457 1456 1456 1455 1454